CST,Max TemperatureF,Mean TemperatureF,Min TemperatureF,Max Dew PointF,MeanDew PointF,Min DewpointF,Max Humidity, Mean Humidity, Min Humidity, Max Sea Level PressureIn, Mean Sea Level PressureIn, Min Sea Level PressureIn, Max VisibilityMiles, Mean VisibilityMiles, Min VisibilityMiles, Max Wind SpeedMPH, Mean Wind SpeedMPH, Max Gust SpeedMPH,PrecipitationIn, CloudCover, Events, WindDirDegrees
2013-1-1,18,5,-8,14,5,-12,92,83,73,30.35,30.20,30.03,10,9,1,18,9,22,0.00,6,,236
2013-1-2,30,19,8,25,16,5,92,83,74,30.18,30.01,29.94,10,6,1,25,11,32,T,7,Snow,261
2013-1-3,24,15,5,18,6,0,88,81,73,30.38,30.28,30.13,10,8,4,23,15,26,T,3,Snow,288
2013-1-4,27,18,9,18,12,6,92,80,68,30.20,30.17,30.14,10,10,9,26,12,31,0.00,0,,237
2013-1-5,27,16,5,17,11,4,88,81,73,30.14,30.03,29.93,10,8,4,24,13,31,0.00,2,,271
2013-1-6,21,15,8,15,10,3,91,81,70,30.31,30.22,30.09,10,10,8,21,11,24,0.00,1,,246
2013-1-7,32,25,16,27,21,14,96,82,72,30.05,30.00,29.96,10,10,5,22,14,,0.03,0,,223
2013-1-8,34,23,11,28,17,9,100,88,75,30.05,29.92,29.79,10,5,0,25,10,29,0.00,1,Fog,203
2013-1-9,37,29,21,29,25,19,92,81,70,30.40,30.29,30.09,10,10,8,21,11,24,0.00,0,,229
2013-1-10,36,29,22,34,29,21,100,85,70,30.33,29.95,29.67,10,6,0,18,13,23,0.13,5,Fog-Rain,157
2013-1-11,39,36,28,39,35,26,100,98,88,29.68,29.49,29.37,10,2,0,20,12,33,0.01,8,Fog,189
2013-1-12,27,17,6,22,5,0,92,77,61,30.14,29.97,29.59,10,9,2,32,20,40,T,5,Snow,290
2013-1-13,14,8,2,4,0,-4,79,70,61,30.32,30.19,30.04,10,9,4,22,14,25,T,4,Snow,312
2013-1-14,21,13,5,11,6,0,85,77,63,30.47,30.39,30.29,10,10,10,12,7,,0.00,1,,238
2013-1-15,32,22,12,16,13,7,80,67,53,30.33,30.19,29.96,10,10,10,23,13,29,0.00,1,,210
2013-1-16,41,26,11,33,23,2,92,80,68,30.28,29.93,29.76,10,10,8,28,16,32,T,5,,286
2013-1-17,33,20,7,22,12,-3,88,69,49,30.44,30.39,30.29,10,10,10,18,9,22,0.00,5,,339
2013-1-18,47,36,24,32,28,21,92,73,53,30.24,29.93,29.82,10,10,6,25,14,30,0.00,0,,227
2013-1-19,44,26,7,33,22,-1,89,76,62,30.34,29.98,29.77,10,10,6,38,19,47,T,3,Snow,298
2013-1-20,12,7,1,3,0,-7,83,75,66,30.49,30.37,30.29,10,7,1,23,14,29,T,6,Snow,313
2013-1-21,5,-2,-9,-5,-10,-17,72,67,61,30.46,30.40,30.29,10,10,2,26,16,33,T,1,Snow,304
2013-1-22,14,4,-6,7,-3,-11,79,66,52,30.45,30.38,30.25,10,10,10,13,6,16,0.00,4,,257
2013-1-23,19,7,-5,10,2,-13,84,71,58,30.63,30.34,30.15,10,9,4,31,15,38,T,4,Snow,321
2013-1-24,15,5,-5,3,-6,-13,68,58,48,30.68,30.49,30.19,10,10,10,24,14,30,0.00,2,,128
2013-1-25,28,16,3,18,6,-3,79,64,49,30.34,30.15,29.99,10,10,4,29,14,37,T,3,,298
2013-1-26,29,15,0,13,4,-4,87,67,46,30.37,30.24,30.10,10,10,10,25,13,30,0.00,4,,150
2013-1-27,32,29,25,31,27,13,100,77,53,30.07,29.86,29.74,10,4,0,21,12,25,0.00,8,Fog-Rain,153
2013-1-28,34,31,28,32,30,27,100,95,89,29.90,29.80,29.59,1,0,0,14,6,16,0.13,,Fog,136
2013-1-29,33,28,22,32,27,20,96,90,84,29.78,29.65,29.55,10,5,0,28,16,35,0.03,8,Fog,337
2013-1-30,22,14,5,19,10,-1,92,80,67,29.90,29.77,29.66,10,9,4,31,23,38,T,7,Snow,327
2013-1-31,5,-1,-8,0,-9,-16,83,71,59,30.41,30.11,29.82,10,10,6,32,22,39,0.00,3,,308